Fulton Cnty AP, Rochester, IN, IN

11:41 PM EDT on March 23, 2017 (GMT -0400)
Fulton County

Weather History for KRCR - December, 2013

Change the Weather History Date:

Tuesday, December 24, 2013

  Actual Average Record
Temperature  
Mean Temperature 13 °F -  
Max Temperature 21 °F 32 °F 59 °F (2015)
Min Temperature 5 °F 16 °F 5 °F (2013)
Degree Days  
Heating Degree Days 52    
Moisture  
Dew Point 7 °F    
Average Humidity 75    
Maximum Humidity 80    
Minimum Humidity 67    
Precipitation  
Precipitation 0.00 in - - ()
Sea Level Pressure  
Sea Level Pressure 30.49 in    
Wind  
Wind Speed 9 mph (SW)    
Max Wind Speed 13 mph    
Max Gust Speed 18 mph    
Visibility 10 miles    
Events Snow    
Averages and records for this station are not official NWS values.
T = Trace of Precipitation, MM = Missing Value Source: NWS Daily Summary

Daily Weather History Graph

Daily Weather History Graph

Search for Another Location

Airport or City:

Trip Planner

Search our weather history database for the weather conditions in past years. The results will help you decide how hot, cold, wet, or windy it might be!

Date:

Astronomy

Dec. 24, 2013 Rise Set
Actual Time 8:07 AM EST 5:21 PM EST
Civil Twilight 7:36 AM EST 5:52 PM EST
Nautical Twilight 7:01 AM EST 6:27 PM EST
Astronomical Twilight 6:28 AM EST 7:00 PM EST
Moon No Moon Rise 11:58 AM EST
Length of Visible Light 10h 15m
Length of Day
9h 13m
Waning Gibbous, 59% of the Moon is Illuminated
Dec 24
Waning Gibbous
Dec 25
Last Quarter
Jan 1
New
Jan 7
First Quarter
Jan 15
Full

Hourly Weather History & Observations

Time (EST) Temp. Windchill Dew Point Humidity Pressure Visibility Wind Dir Wind Speed Gust Speed Precip Events Conditions
12:15 AM 10.4 °F -1.5 °F 5.0 °F 79% 30.42 in 7.0 mi WNW 8.1 mph - N/A Snow Light Snow
12:35 AM 10.4 °F -2.4 °F 5.0 °F 79% 30.42 in 5.0 mi West 9.2 mph - N/A Snow Light Snow
12:55 AM 10.4 °F -2.4 °F 5.0 °F 79% 30.42 in 7.0 mi West 9.2 mph - N/A Snow Light Snow
1:15 AM 10.4 °F -4.8 °F 3.2 °F 73% 30.42 in 10.0 mi West 12.7 mph - N/A   Scattered Clouds
1:35 AM 8.6 °F -4.7 °F 3.2 °F 79% 30.42 in 10.0 mi West 9.2 mph 16.1 mph N/A   Clear
1:55 AM 8.6 °F -4.7 °F 1.4 °F 73% 30.42 in 10.0 mi West 9.2 mph - N/A   Clear
2:15 AM 8.6 °F -6.3 °F 1.4 °F 73% 30.43 in 10.0 mi West 11.5 mph 18.4 mph N/A   Scattered Clouds
2:35 AM 8.6 °F -5.5 °F 1.4 °F 73% 30.43 in 7.0 mi West 10.4 mph - N/A   Mostly Cloudy
2:55 AM 8.6 °F -6.3 °F 1.4 °F 73% 30.44 in 5.0 mi West 11.5 mph 16.1 mph N/A   Haze
3:15 AM 6.8 °F -6.9 °F 1.4 °F 79% 30.44 in 7.0 mi West 9.2 mph - N/A   Mostly Cloudy
3:35 AM 6.8 °F -8.6 °F -0.4 °F 72% 30.45 in 10.0 mi West 11.5 mph 18.4 mph N/A   Scattered Clouds
3:55 AM 5.0 °F -8.1 °F -0.4 °F 78% 30.45 in 10.0 mi West 8.1 mph - N/A   Clear
4:15 AM 5.0 °F -10.8 °F -0.4 °F 78% 30.45 in 10.0 mi West 11.5 mph - N/A   Clear
4:35 AM 5.0 °F -9.1 °F -0.4 °F 78% 30.45 in 10.0 mi West 9.2 mph - N/A   Clear
4:55 AM 5.0 °F -10.8 °F -0.4 °F 78% 30.45 in 10.0 mi West 11.5 mph 16.1 mph N/A   Clear
5:15 AM 5.0 °F -6.9 °F -0.4 °F 78% 30.45 in 10.0 mi West 6.9 mph - N/A   Scattered Clouds
5:35 AM 5.0 °F -9.1 °F -0.4 °F 78% 30.45 in 10.0 mi WSW 9.2 mph - N/A   Mostly Cloudy
5:55 AM 5.0 °F -10.8 °F -0.4 °F 78% 30.46 in 10.0 mi WSW 11.5 mph - N/A   Scattered Clouds
6:15 AM 5.0 °F -8.1 °F -0.4 °F 78% 30.46 in 10.0 mi West 8.1 mph - N/A   Clear
6:35 AM 5.0 °F -10.0 °F -0.4 °F 78% 30.47 in 10.0 mi West 10.4 mph - N/A   Clear
6:55 AM 5.0 °F -9.1 °F -0.4 °F 78% 30.48 in 10.0 mi West 9.2 mph 16.1 mph N/A   Clear
7:15 AM 5.0 °F -10.0 °F -0.4 °F 78% 30.49 in 10.0 mi WSW 10.4 mph - N/A   Clear
7:35 AM 5.0 °F -8.1 °F -0.4 °F 78% 30.49 in 10.0 mi West 8.1 mph - N/A   Clear
7:55 AM 5.0 °F -8.1 °F -0.4 °F 78% 30.49 in 10.0 mi West 8.1 mph - N/A   Clear
8:15 AM 5.0 °F -9.1 °F -0.4 °F 78% 30.50 in 10.0 mi West 9.2 mph - N/A   Clear
8:35 AM 5.0 °F -9.1 °F -0.4 °F 78% 30.50 in 10.0 mi West 9.2 mph - N/A   Scattered Clouds
8:55 AM 6.8 °F -5.9 °F -0.4 °F 72% 30.51 in 10.0 mi WSW 8.1 mph - N/A   Mostly Cloudy
9:15 AM 8.6 °F -4.7 °F 1.4 °F 73% 30.52 in 10.0 mi West 9.2 mph - N/A   Overcast
9:35 AM 8.6 °F -5.5 °F 1.4 °F 73% 30.52 in 10.0 mi WSW 10.4 mph - N/A   Mostly Cloudy
9:55 AM 8.6 °F -3.7 °F 1.4 °F 73% 30.52 in 10.0 mi West 8.1 mph - N/A   Scattered Clouds
10:15 AM 10.4 °F -0.4 °F 1.4 °F 67% 30.53 in 10.0 mi WNW 6.9 mph - N/A   Clear
10:35 AM 10.4 °F -0.4 °F 3.2 °F 73% 30.55 in 10.0 mi West 6.9 mph - N/A   Clear
10:55 AM 12.2 °F 1.7 °F 3.2 °F 67% 30.55 in 10.0 mi West 6.9 mph - N/A   Clear
11:15 AM 12.2 °F 0.7 °F 3.2 °F 67% 30.55 in 10.0 mi West 8.1 mph - N/A   Clear
11:35 AM 12.2 °F 2.9 °F 5.0 °F 73% 30.55 in 10.0 mi West 5.8 mph - N/A   Clear
11:55 AM 14.0 °F 1.2 °F 5.0 °F 67% 30.54 in 10.0 mi WSW 10.4 mph - N/A   Clear
12:15 PM 14.0 °F 2.0 °F 6.8 °F 73% 30.53 in 10.0 mi WSW 9.2 mph - N/A   Clear
12:35 PM 15.8 °F 5.1 °F 8.6 °F 73% 30.53 in 10.0 mi WSW 8.1 mph - N/A   Clear
12:55 PM 17.6 °F 5.0 °F 8.6 °F 68% 30.52 in 10.0 mi West 11.5 mph - N/A   Clear
1:15 PM 17.6 °F 7.3 °F 8.6 °F 68% 30.52 in 10.0 mi West 8.1 mph - N/A   Clear
1:35 PM 17.6 °F 6.4 °F 8.6 °F 68% 30.52 in 10.0 mi West 9.2 mph - N/A   Clear
1:55 PM 19.4 °F 8.6 °F 10.4 °F 68% 30.52 in 10.0 mi WSW 9.2 mph - N/A   Clear
2:15 PM 19.4 °F 9.5 °F 10.4 °F 68% 30.52 in 10.0 mi WSW 8.1 mph - N/A   Clear
2:35 PM 19.4 °F 10.4 °F 10.4 °F 68% 30.51 in 10.0 mi WSW 6.9 mph - N/A   Clear
2:55 PM 19.4 °F 9.5 °F 10.4 °F 68% 30.50 in 10.0 mi SW 8.1 mph - N/A   Clear
3:15 PM 19.4 °F 10.4 °F 10.4 °F 68% 30.50 in 10.0 mi SSW 6.9 mph - N/A   Clear
3:35 PM 21.2 °F 11.7 °F 12.2 °F 68% 30.51 in 10.0 mi WSW 8.1 mph - N/A   Clear
3:55 PM 21.2 °F 12.6 °F 12.2 °F 68% 30.52 in 10.0 mi SW 6.9 mph - N/A   Clear
4:15 PM 21.2 °F 16.4 °F 12.2 °F 68% 30.51 in 10.0 mi SSW 3.5 mph - N/A   Clear
4:35 PM 19.4 °F 12.8 °F 12.2 °F 74% 30.51 in 10.0 mi SW 4.6 mph - N/A   Clear
4:55 PM 19.4 °F 11.5 °F 12.2 °F 74% 30.52 in 10.0 mi SW 5.8 mph - N/A   Clear
5:15 PM 19.4 °F 11.5 °F 12.2 °F 74% 30.52 in 10.0 mi SW 5.8 mph - N/A   Clear
5:35 PM 19.4 °F 11.5 °F 12.2 °F 74% 30.51 in 10.0 mi SSW 5.8 mph - N/A   Clear
5:55 PM 19.4 °F 14.3 °F 12.2 °F 74% 30.51 in 10.0 mi South 3.5 mph - N/A   Clear
6:15 PM 17.6 °F 12.3 °F 12.2 °F 79% 30.50 in 10.0 mi SSE 3.5 mph - N/A   Clear
6:35 PM 17.6 °F 12.3 °F 10.4 °F 73% 30.50 in 10.0 mi ESE 3.5 mph - N/A   Clear
6:55 PM 17.6 °F 10.7 °F 12.2 °F 79% 30.50 in 10.0 mi SE 4.6 mph - N/A   Clear
7:15 PM 17.6 °F 10.7 °F 12.2 °F 79% 30.50 in 10.0 mi SSE 4.6 mph - N/A   Clear
7:35 PM 17.6 °F 9.3 °F 12.2 °F 79% 30.49 in 10.0 mi SSE 5.8 mph - N/A   Clear
7:55 PM 17.6 °F 10.7 °F 12.2 °F 79% 30.51 in 10.0 mi SSE 4.6 mph - N/A   Clear
8:15 PM 17.6 °F 9.3 °F 12.2 °F 79% 30.50 in 10.0 mi SE 5.8 mph - N/A   Clear
8:35 PM 17.6 °F 9.3 °F 12.2 °F 79% 30.49 in 10.0 mi SE 5.8 mph - N/A   Clear
8:55 PM 17.6 °F 10.7 °F 12.2 °F 79% 30.50 in 10.0 mi SSE 4.6 mph - N/A   Clear
9:15 PM 19.4 °F 9.5 °F 14.0 °F 80% 30.48 in 10.0 mi SE 8.1 mph - N/A   Clear
9:35 PM 19.4 °F 11.5 °F 14.0 °F 80% 30.48 in 10.0 mi SSE 5.8 mph - N/A   Clear
9:55 PM 19.4 °F 9.5 °F 14.0 °F 80% 30.47 in 10.0 mi SE 8.1 mph - N/A   Clear
10:15 PM 19.4 °F 9.5 °F 14.0 °F 80% 30.47 in 10.0 mi SSE 8.1 mph - N/A   Clear
10:35 PM 19.4 °F 9.5 °F 14.0 °F 80% 30.45 in 10.0 mi SSE 8.1 mph - N/A   Clear
10:55 PM 19.4 °F 8.6 °F 14.0 °F 80% 30.45 in 10.0 mi SSE 9.2 mph - N/A   Clear
11:15 PM 21.2 °F 11.7 °F 14.0 °F 74% 30.45 in 10.0 mi SSE 8.1 mph - N/A   Clear
11:35 PM 21.2 °F 11.7 °F 14.0 °F 74% 30.44 in 10.0 mi SSE 8.1 mph - N/A   Clear
11:55 PM 21.2 °F 10.1 °F 14.0 °F 74% 30.43 in 10.0 mi SSE 10.4 mph - N/A   Clear